Location: Gleizolles
(44.4833°N, 6.7667°E)
Time: 21:03:16
(UTC+00:00)

Tiros 1 despin weight - Pass Details

Date: 27 June 2024
Orbit: 576 x 620 km, 48.2° (Epoch: 19 July)

Event Time Altitude Azimuth Distance (km) Brightness Sun altitude
Rises 12:06:51 0° 272° (W) 2,887 ? 67.9°
Reaches altitude 10° 12:09:12 10° 277° (W) 1,985 ? 67.8°
Maximum altitude 12:13:41 54° 355° (N) 758 ? 67.5°
Drops below altitude 10° 12:18:11 10° 73° (ENE) 1,987 ? 67.1°
Sets 12:20:32 0° 78° (ENE) 2,891 ? 66.9°
